CAPE
496 441 191 123 186 170 226 164 194 212 326 292 241 222 220 192 221 187 78 98 155 173 201 216 244 268 264 240 320 392 496 776 1008 944 958 900 892 817 667 780 748 1193
349 274 285 169 246 286 231 180 220 290 295 281 260 244 182 188 118 113 125 120 82 99 203 224 242 258 246 160 248 299 430 795 992 775 865 1077 1022 960 1061 1482 1594 1607
300 172 129 114 7 0 16 162 318 246 219 180 209 174 148 149 144 137 142 124 150 122 156 198 223 258 243 234 328 416 401 532 770 876 1028 1094 854 1084 1014 1234 1617 1198
421 226 78 62 50 1 14 161 267 228 184 142 124 129 140 178 194 196 194 225 226 199 180 196 222 252 321 373 390 327 257 458 598 773 1206 1424 1262 880 308 658 1349 1586
181 193 236 61 16 28 94 200 223 204 215 172 146 140 168 179 209 175 177 212 340 307 178 207 251 310 405 520 651 689 723 564 271 293 332 442 599 616 758 1200 1149 546
274 159 131 76 31 7 12 48 155 188 194 156 155 122 140 162 212 234 275 332 296 281 337 298 362 378 438 561 760 1085 1091 656 531 423 398 460 341 248 365 568 453 444
258 282 218 131 36 34 37 98 165 153 128 185 250 271 246 205 241 344 487 619 736 837 834 920 754 716 707 931 1134 1115 794 785 792 732 478 670 664 638 554 509 294 224
292 192 114 49 12 14 58 142 116 114 125 157 204 190 240 275 362 459 535 718 796 868 1019 1419 1263 864 864 983 952 1122 1121 1111 1117 683 676 502 470 362 585 550 282 410
382 255 194 90 21 10 4 0 1 6 27 110 167 162 187 275 356 431 544 736 877 1034 1371 1588 1415 1070 878 886 1038 1153 1149 831 841 992 747 511 267 273 168 162 272 288
425 352 169 9 0 0 0 0 1 9 13 17 104 180 229 370 483 651 842 978 1202 1329 1407 1459 1458 1324 1109 789 1068 1038 1079 1148 834 951 762 474 245 261 217 221 190 172
534 308 106 36 20 2 0 0 1 1 4 32 104 277 444 483 538 654 973 1280 1425 1400 1350 1428 1192 1154 1248 1296 1244 1211 1046 868 1063 1134 961 304 208 182 70 122 57 20
427 294 88 26 22 8 6 26 18 24 20 4 0 0 2 8 47 195 669 1264 1388 1308 1376 1463 1562 1546 1467 1535 1289 1206 1151 1126 1042 866 484 204 196 126 79 54 22 6
321 204 106 31 21 14 23 14 19 8 10 18 9 4 1 17 67 145 216 756 1354 1438 1302 1275 1498 1510 1628 1585 1427 1098 846 915 1027 913 400 205 214 98 56 42 18 14
286 177 73 44 28 22 25 46 82 68 96 67 18 6 0 0 6 114 168 276 386 772 1194 1542 1594 1558 1636 1636 1451 1080 951 878 750 616 339 213 130 46 40 35 8 13
384 192 45 29 20 58 85 160 179 157 100 54 12 2 0 0 63 169 276 403 498 797 1462 1738 1533 1536 1676 1616 1112 843 824 812 754 679 430 100 104 86 33 17 3 6
392 311 162 82 76 108 226 270 113 80 50 22 12 2 0 21 260 436 484 593 604 578 946 1570 1626 1748 1461 731 321 694 730 806 723 716 656 283 107 67 17 4 0 1
372 326 235 158 166 183 246 356 284 138 29 16 24 33 62 324 394 417 420 403 474 782 1098 1555 1638 1784 1302 644 430 445 861 833 678 685 630 350 108 64 39 20 6 3
324 294 258 171 177 298 384 421 273 192 35 36 31 28 34 66 186 394 477 531 748 998 1143 1430 1481 1406 1281 874 551 552 640 922 680 573 619 640 274 176 85 49 48 40
379 278 215 198 228 322 369 418 314 196 78 24 5 8 35 201 274 255 390 553 717 785 762 1007 1210 1428 1316 1068 645 640 679 704 737 526 798 722 546 460 180 60 110 106
297 286 263 248 349 407 450 453 290 141 56 5 0 11 33 109 190 275 327 428 391 470 647 879 1207 948 1140 1101 712 734 743 586 784 526 554 658 732 572 393 176 154 118
344 326 425 527 605 558 657 699 261 70 36 14 2 3 23 151 252 285 357 415 410 400 435 444 545 1232 1234 1016 709 746 754 388 843 590 658 734 809 620 369 344 214 140
405 444 508 867 716 673 736 546 85 28 22 24 150 162 181 238 432 539 780 884 682 510 484 640 509 1019 1241 1050 702 611 754 1010 564 405 500 610 920 832 576 478 278 186
446 489 510 528 598 644 696 386 70 26 16 48 204 196 89 52 110 80 292 720 771 701 444 542 765 1324 1132 1098 846 562 484 1093 332 278 458 846 1086 1008 799 406 351 320
604 596 444 401 514 661 645 216 62 40 40 274 236 104 138 208 107 10 33 556 632 545 504 602 235 330 924 1098 1076 792 708 1274 581 335 388 851 971 1235 1106 507 452 310
579 451 409 385 557 463 351 200 181 130 79 498 335 186 356 657 374 492 573 710 184 102 293 630 760 361 754 1054 1152 999 868 1611 1361 553 642 795 772 1324 1380 924 558 392
598 518 533 506 430 412 563 662 485 316 222 208 180 72 203 447 782 496 544 655 691 865 788 295 576 728 570 842 1007 1220 1138 1461 1490 1133 846 796 942 1592 1537 889 627 540
Wind_Speed
26 27 26 27 28 29 30 30 32 32 33 33 33 34 35 36 37 38 nan nan 41 40 37 34 32 31 30 29 28 28 28 27 27 27 27 28 28 23 24 25 25 29
28 28 29 28 30 31 31 32 32 33 33 34 34 34 35 36 37 38 38 39 nan nan 35 33 31 31 30 28 27 26 27 28 27 29 29 28 29 26 25 25 27 29
30 30 29 29 nan nan nan 32 33 33 33 33 34 35 36 36 37 38 37 37 36 34 33 32 31 31 30 28 27 27 27 27 28 29 29 29 30 31 29 28 29 29
33 32 nan nan nan nan nan 32 33 34 34 35 35 35 36 36 37 37 36 35 34 32 31 31 31 31 30 29 29 30 28 28 29 29 28 28 30 30 30 31 30 30
35 34 33 nan nan nan nan 33 33 33 33 34 35 35 37 36 36 36 34 32 32 30 30 29 29 30 30 29 29 30 30 29 28 29 29 27 26 27 30 31 31 29
36 36 35 nan nan nan nan nan 35 34 34 34 35 35 36 36 36 35 32 30 29 29 28 28 28 29 30 30 31 33 33 32 29 27 28 29 28 28 29 30 30 31
36 37 35 35 nan nan nan nan 36 36 35 35 35 36 37 37 36 35 32 29 28 28 27 28 29 29 30 31 33 34 34 33 30 29 28 30 30 29 28 28 28 30
37 36 35 nan nan nan nan 35 36 36 36 35 34 36 37 37 36 35 33 30 29 29 28 29 29 30 31 33 33 33 33 35 34 33 27 26 29 29 29 29 29 29
37 37 36 nan nan nan nan nan nan nan nan 35 34 35 36 38 37 35 33 31 30 30 30 31 31 33 35 35 35 34 33 34 32 30 26 22 24 25 25 27 27 29
38 38 36 nan nan nan nan nan nan nan nan nan 35 35 36 37 36 35 33 32 31 31 32 34 35 36 36 37 36 35 33 36 33 28 24 21 21 21 21 24 25 27
38 38 37 nan nan nan nan nan nan nan nan nan 35 35 36 36 36 35 33 33 33 33 33 35 36 37 38 38 37 35 33 31 29 28 24 21 22 21 nan 21 nan nan
39 39 nan nan nan nan nan nan nan nan nan nan nan nan nan nan nan 35 33 32 33 34 35 36 38 40 40 39 36 34 32 30 29 26 23 22 23 23 nan nan nan nan
39 39 39 nan nan nan nan nan nan nan nan nan nan nan nan nan nan 32 33 33 33 35 36 36 38 40 41 39 36 33 30 29 28 26 24 25 25 nan nan nan nan nan
39 40 nan nan nan nan nan nan nan nan nan nan nan nan nan nan nan 32 32 34 35 36 37 38 39 40 39 38 34 31 30 28 27 25 24 25 25 nan nan nan nan nan
41 41 nan nan nan nan nan 41 42 42 40 nan nan nan nan nan nan 32 33 34 35 36 37 39 39 39 38 37 32 29 29 27 25 24 22 24 24 nan nan nan nan nan
42 42 42 nan nan 41 41 42 42 nan nan nan nan nan nan nan 33 33 34 35 36 38 38 40 39 38 41 41 33 29 27 26 24 23 23 23 23 nan nan nan nan nan
43 43 42 41 41 42 42 43 43 42 nan nan nan nan nan 36 35 35 35 36 36 37 38 39 38 37 42 38 34 29 27 24 23 22 23 24 23 nan nan nan nan nan
43 42 41 41 41 42 43 43 44 43 nan nan nan nan nan nan 35 36 36 37 38 38 37 38 35 37 40 36 31 28 27 24 22 22 24 24 24 22 nan nan nan nan
42 41 41 41 42 42 43 43 44 43 nan nan nan nan nan 37 36 36 38 38 38 37 35 34 30 39 38 33 29 26 25 24 22 22 23 23 22 21 19 nan 18 17
42 41 41 42 43 43 44 44 44 42 nan nan nan nan nan 37 36 37 38 38 37 36 34 32 27 36 31 32 28 26 25 23 22 21 23 23 21 19 17 17 17 16
42 42 42 43 43 45 46 46 44 nan nan nan nan nan nan 37 37 36 36 36 35 33 29 28 28 35 29 29 28 25 23 23 22 22 22 23 23 19 16 17 17 14
43 43 43 43 44 46 46 45 nan nan nan nan 39 37 37 36 35 33 32 32 31 28 26 25 25 35 29 29 28 25 24 24 21 22 22 22 23 20 16 15 15 12
44 43 42 43 43 44 44 44 nan nan nan nan 39 37 nan nan 34 nan 30 31 27 20 16 19 22 32 31 30 29 27 25 22 20 21 22 22 22 23 18 12 12 12
44 43 42 43 44 43 43 42 nan nan nan 42 39 35 33 34 33 nan nan 29 27 22 20 16 15 22 34 31 30 29 26 22 21 21 22 22 23 25 24 15 12 11
44 43 42 43 43 42 42 41 44 44 nan 43 42 37 35 34 35 29 25 22 18 16 16 16 17 17 31 33 32 29 28 25 23 21 21 22 24 27 27 21 14 12
45 44 43 42 42 41 40 47 51 48 45 43 41 nan 37 35 36 31 26 23 20 17 15 12 14 16 25 34 30 29 29 26 24 21 20 21 24 27 27 21 17 13
Wind_Direction
314 314 315 317 317 318 319 320 321 321 320 317 315 310 310 309 309 310 nan nan 310 307 302 300 301 301 301 301 301 300 301 299 296 293 292 289 281 275 274 273 265 256
313 313 314 316 319 320 321 321 321 321 320 317 314 311 310 310 309 312 314 315 nan nan 302 298 299 300 301 301 301 302 303 305 302 293 288 280 280 278 268 265 264 260
313 312 313 315 nan nan nan 319 320 320 319 315 314 313 310 309 310 313 317 317 314 308 302 298 298 300 302 303 306 308 307 309 308 300 294 285 277 272 269 265 264 261
313 312 nan nan nan nan nan 318 318 318 318 317 314 310 309 308 310 314 317 319 316 309 303 299 298 300 302 305 311 312 312 308 303 298 297 292 282 272 264 259 258 259
312 312 312 nan nan nan nan 319 317 316 316 315 314 312 311 309 310 313 317 317 315 310 305 301 301 301 301 303 308 311 311 307 298 293 289 288 281 273 267 262 259 254
312 312 313 nan nan nan nan nan 319 317 316 314 313 311 310 310 311 314 316 317 314 310 308 306 304 302 300 302 306 311 308 306 298 289 283 280 279 275 268 261 252 249
313 313 313 314 nan nan nan nan 321 320 317 314 312 311 311 311 314 316 319 318 316 314 311 309 306 305 302 303 307 307 308 307 300 286 279 276 276 273 269 261 249 243
314 313 313 nan nan nan nan 320 320 320 318 315 314 312 312 313 315 317 318 318 318 317 315 312 308 306 304 303 304 304 304 302 295 290 283 276 271 268 267 266 255 245
315 314 314 nan nan nan nan nan nan nan nan 317 314 312 313 314 316 318 319 319 319 318 315 311 310 306 304 303 304 304 302 296 294 293 291 279 269 269 265 262 257 249
315 315 315 nan nan nan nan nan nan nan nan nan 315 313 313 315 317 319 321 321 320 319 316 313 311 308 306 304 304 303 300 298 300 300 294 283 272 269 264 264 256 249
315 315 316 nan nan nan nan nan nan nan nan nan 314 314 314 315 317 318 321 323 320 319 316 313 311 310 308 306 305 304 302 299 299 299 295 281 275 270 nan 270 nan nan
315 316 nan nan nan nan nan nan nan nan nan nan nan nan nan nan nan 317 318 321 321 319 317 315 313 311 309 309 308 306 304 300 299 299 291 281 277 276 nan nan nan nan
316 316 315 nan nan nan nan nan nan nan nan nan nan nan nan nan nan 316 317 318 319 318 317 315 314 312 311 312 311 308 304 303 302 300 293 288 286 nan nan nan nan nan
317 316 nan nan nan nan nan nan nan nan nan nan nan nan nan nan nan 314 313 314 315 316 316 315 313 313 312 311 310 307 304 303 303 300 296 294 287 nan nan nan nan nan
317 317 nan nan nan nan nan 317 314 313 316 nan nan nan nan nan nan 311 311 313 313 313 315 314 312 311 311 308 306 305 302 303 305 305 300 295 290 nan nan nan nan nan
318 318 317 nan nan 315 316 316 313 nan nan nan nan nan nan nan 310 309 311 311 310 310 313 310 310 310 306 305 307 304 301 305 308 308 307 298 290 nan nan nan nan nan
317 317 316 315 314 316 318 316 314 317 nan nan nan nan nan 310 311 310 308 307 307 308 307 307 307 308 308 310 311 314 310 307 311 313 311 305 295 nan nan nan nan nan
317 316 315 314 315 318 319 318 317 317 nan nan nan nan nan nan 309 309 309 307 307 306 305 305 306 307 310 310 312 313 313 313 317 317 316 312 302 289 nan nan nan nan
315 315 314 315 316 318 319 319 316 316 nan nan nan nan nan 310 310 310 308 307 307 307 305 304 303 304 310 309 312 317 316 320 322 321 321 315 304 296 284 nan 278 269
315 315 316 317 318 319 320 319 316 316 nan nan nan nan nan 312 311 310 310 309 309 309 308 304 302 296 308 309 315 318 318 325 325 325 325 319 308 297 287 285 293 275
316 316 317 317 318 319 320 319 317 nan nan nan nan nan nan 312 312 311 310 310 309 309 308 305 299 305 315 315 316 317 322 326 327 327 327 323 315 304 295 304 312 297
316 315 316 317 318 320 320 318 nan nan nan nan 313 313 311 312 313 312 311 312 313 314 314 310 301 314 320 319 317 321 323 322 324 326 331 329 317 309 306 316 327 312
315 314 314 316 316 318 319 318 nan nan nan nan 314 314 nan nan 309 nan 303 297 293 296 301 309 309 315 321 319 319 323 320 318 320 324 328 331 322 313 313 327 338 329
313 313 313 314 316 318 319 317 nan nan nan 313 312 311 313 309 302 nan nan 304 307 301 300 304 304 306 318 319 322 326 324 319 318 322 327 329 325 321 319 326 347 11
311 312 313 314 316 317 316 315 312 310 nan 313 312 312 304 298 296 298 296 296 290 285 289 297 305 305 315 319 323 327 323 320 321 319 323 325 324 324 323 325 334 347
310 311 313 314 315 317 313 307 310 314 315 315 315 nan 309 300 296 295 292 291 295 293 290 289 296 313 309 320 324 327 328 321 319 319 320 321 321 322 324 327 327 330